VK3ABC-13 Weather Reports


time (UTC)temp
F
wind
direction
speed
knots
gust
knots
rain 1hr
in
rain 24hr
in
rain mn
in
humidity
%
barometer
mb
20260504050509 67 113 7.8 17.4 0.00 0.08 0.00 54 1005.6
20260504050013 67 237 7.8 13.0 0.00 0.08 0.00 54 1005.7
20260504045509 67 1 7.8 15.6 0.00 0.08 0.00 54 1005.6
20260504044509 67 97 8.7 15.6 0.00 0.08 0.00 52 1005.5
20260504043510 67 0 7.0 20.9 0.00 0.08 0.00 52 1005.5
20260504042509 68 274 7.8 15.6 0.00 0.08 0.00 52 1005.7
20260504042010 68 301 7.8 15.6 0.00 0.08 0.00 53 1005.8
20260504041510 68 93 6.1 12.2 0.00 0.08 0.00 52 1005.8
20260504041010 68 109 5.2 17.4 0.00 0.08 0.00 52 1005.8
20260504040509 68 227 6.1 12.2 0.00 0.08 0.00 52 1005.9
20260504040012 68 117 7.8 13.9 0.00 0.08 0.00 52 1006.0
20260504035509 68 107 6.1 13.0 0.00 0.08 0.00 53 1005.9
20260504035010 68 200 6.1 21.7 0.00 0.08 0.00 51 1006.0
20260504034010 68 202 6.1 13.9 0.00 0.08 0.00 53 1006.1
20260504033509 68 169 5.2 11.3 0.00 0.08 0.00 54 1006.2
20260504033011 68 115 7.8 13.9 0.00 0.08 0.00 52 1006.2
20260504032508 68 188 7.0 17.4 0.00 0.08 0.00 52 1006.3
20260504032010 68 186 5.2 13.9 0.00 0.08 0.00 54 1006.4
20260504030509 68 187 6.1 12.2 0.00 0.08 0.00 55 1006.7
20260504030011 68 190 9.6 19.1 0.00 0.08 0.00 54 1006.8
20260504025509 68 333 5.2 10.4 0.00 0.08 0.00 56 1006.8
20260504025011 68 174 5.2 11.3 0.00 0.08 0.00 56 1006.8
20260504024510 67 191 5.2 10.4 0.00 0.08 0.00 57 1006.9
20260504024010 67 195 5.2 13.0 0.00 0.08 0.00 57 1006.8
20260504022509 67 141 7.8 13.0 0.00 0.08 0.00 59 1007.1
20260504021508 66 108 5.2 10.4 0.00 0.09 0.00 60 1007.2
20260504020509 66 176 6.1 15.6 0.00 0.12 0.00 59 1007.4
20260504020011 66 16 7.0 17.4 0.00 0.13 0.00 59 1007.4
20260504015011 66 21 7.0 15.6 0.00 0.16 0.00 59 1007.6
20260504014010 67 22 5.2 15.6 0.00 0.22 0.00 59 1007.7
20260504013509 67 318 4.3 11.3 0.00 0.25 0.00 60 1007.6
20260504013010 67 128 4.3 13.0 0.00 0.28 0.00 61 1007.8
20260504012509 66 31 7.0 13.9 0.00 0.30 0.00 60 1007.9
20260504012011 66 48 7.8 12.2 0.00 0.31 0.00 60 1007.9
20260504011011 66 61 3.5 8.7 0.00 0.38 0.00 63 1007.8
20260504010509 66 142 6.1 12.2 0.00 0.39 0.00 61 1007.9
20260504010011 65 95 6.1 10.4 0.00 0.39 0.00 61 1008.0
20260504005509 66 191 5.2 11.3 0.00 0.40 0.00 61 1008.0
20260504004509 65 196 5.2 10.4 0.00 0.42 0.00 62 1008.1
20260504004011 65 152 7.0 11.3 0.00 0.44 0.00 61 1008.1
20260504003510 65 310 6.1 13.0 0.00 0.46 0.00 63 1007.9
20260504003010 65 5 6.1 10.4 0.00 0.46 0.00 63 1007.9
20260504002509 65 11 7.0 13.0 0.00 0.46 0.00 63 1008.1
20260504002009 65 200 5.2 13.0 0.00 0.46 0.00 64 1008.2
20260504001509 64 188 3.5 10.4 0.00 0.46 0.00 65 1008.0
20260504001011 64 40 4.3 8.7 0.00 0.46 0.00 64 1008.0
20260504000509 64 186 7.0 12.2 0.00 0.46 0.00 64 1008.0
20260504000011 64 3 5.2 10.4 0.00 0.46 0.00 65 1007.9
20260503235509 64 40 8.7 13.0 0.00 0.46 0.00 64 1008.0
20260503235011 64 295 7.8 13.9 0.00 0.46 0.00 64 1008.1
20260503234510 64 194 6.1 11.3 0.00 0.46 0.00 64 1008.1
20260503234010 63 0 5.2 12.2 0.00 0.46 0.00 64 1008.0
20260503232509 63 56 5.2 15.6 0.00 0.46 0.00 65 1008.2
20260503232010 63 89 6.1 11.3 0.00 0.46 0.00 66 1008.4
20260503231509 62 296 5.2 10.4 0.00 0.46 0.00 66 1008.2
20260503231009 62 0 6.1 13.0 0.00 0.46 0.00 66 1008.2
20260503230011 61 24 5.2 10.4 0.00 0.46 0.00 67 1008.3
20260503225509 61 45 5.2 13.9 0.00 0.46 0.00 68 1008.3
20260503224509 60 165 4.3 7.8 0.00 0.46 0.00 69 1008.4
20260503224011 60 188 4.3 8.7 0.00 0.46 0.00 70 1008.4
20260503223509 59 42 5.2 10.4 0.00 0.46 0.00 72 1008.4
20260503223009 59 111 5.2 10.4 0.00 0.46 0.00 72 1008.4
20260503222509 58 41 4.3 12.2 0.00 0.46 0.00 73 1008.4
20260503221509 58 26 5.2 7.8 0.00 0.46 0.00 74 1008.4
20260503220508 58 194 4.3 7.8 0.00 0.46 0.00 74 1008.4
20260503220011 58 27 5.2 8.7 0.00 0.46 0.00 75 1008.5
20260503215509 57 181 4.3 8.7 0.00 0.46 0.00 75 1008.5
20260503215010 57 187 3.5 7.8 0.00 0.46 0.00 75 1008.5
20260503214010 57 148 4.3 7.0 0.00 0.46 0.00 75 1008.3
20260503213010 57 21 4.3 10.4 0.00 0.46 0.00 77 1008.3
20260503211508 57 39 5.2 10.4 0.00 0.46 0.00 78 1008.4
20260503211010 57 20 5.2 10.4 0.00 0.46 0.00 78 1008.4
20260503210509 56 40 6.1 10.4 0.00 0.46 0.00 79 1008.4
20260503210011 56 3 5.2 8.7 0.00 0.46 0.00 79 1008.4
20260503205509 56 115 5.2 10.4 0.00 0.46 0.00 79 1008.4
20260503205010 56 69 3.5 7.8 0.00 0.46 0.00 79 1008.3
20260503204508 56 35 4.3 7.0 0.00 0.46 0.00 79 1008.3
20260503204010 57 41 4.3 7.0 0.00 0.46 0.00 79 1008.2
20260503203009 57 38 5.2 7.0 0.00 0.46 0.00 79 1008.0
20260503202509 57 52 4.3 10.4 0.00 0.46 0.00 80 1008.0
20260503202010 57 24 6.1 12.2 0.00 0.46 0.00 80 1008.0
20260503201509 57 21 5.2 10.4 0.00 0.46 0.00 80 1008.0
20260503200509 57 17 6.1 10.4 0.00 0.46 0.00 81 1008.0
20260503200011 57 120 5.2 11.3 0.00 0.46 0.00 81 1008.0
20260503195508 56 10 6.1 12.2 0.00 0.46 0.00 81 1008.0
20260503195010 56 31 5.2 7.8 0.00 0.46 0.00 82 1008.1
20260503194508 56 100 4.3 7.8 0.00 0.46 0.00 82 1008.1
20260503194009 56 326 4.3 7.8 0.00 0.46 0.00 82 1008.1
20260503193509 56 39 3.5 8.7 0.00 0.46 0.00 82 1008.2
20260503193009 56 118 5.2 12.2 0.00 0.46 0.00 82 1008.2
20260503192509 56 49 3.5 10.4 0.00 0.46 0.00 82 1008.3
20260503192009 56 0 4.3 7.0 0.00 0.46 0.00 82 1008.4
20260503191508 57 39 3.5 8.7 0.00 0.46 0.00 83 1008.5
20260503191009 57 29 5.2 10.4 0.00 0.46 0.00 83 1008.5
20260503190509 57 100 4.3 8.7 0.00 0.46 0.00 83 1008.5
20260503190010 57 5 4.3 8.7 0.00 0.46 0.00 83 1008.5
20260503185509 57 35 5.2 10.4 0.00 0.46 0.00 83 1008.6
20260503185009 57 13 4.3 11.3 0.00 0.46 0.00 83 1008.7
20260503184509 57 0 5.2 8.7 0.00 0.46 0.00 83 1008.7
20260503183508 57 41 5.2 7.8 0.00 0.46 0.00 82 1008.6
20260503183010 57 39 4.3 11.3 0.00 0.46 0.00 83 1008.6
20260503182010 57 104 4.3 8.7 0.00 0.46 0.00 82 1008.8
20260503181509 57 132 4.3 10.4 0.00 0.46 0.00 82 1008.8
20260503181010 57 247 4.3 10.4 0.00 0.46 0.00 82 1008.8
20260503180509 57 36 4.3 10.4 0.00 0.46 0.00 82 1008.8
20260503180011 57 21 3.5 10.4 0.00 0.46 0.00 82 1008.9
20260503175508 57 110 5.2 10.4 0.00 0.46 0.00 82 1008.9
20260503175010 57 25 4.3 10.4 0.00 0.46 0.00 82 1009.0
20260503174508 57 39 4.3 10.4 0.00 0.46 0.00 82 1008.9
20260503174010 57 19 5.2 7.8 0.00 0.46 0.00 82 1008.9
20260503173508 57 17 4.3 8.7 0.00 0.46 0.00 82 1008.9
20260503173016 58 21 4.3 7.8 0.00 0.46 0.00 82 1009.0
20260503172010 58 0 4.3 11.3 0.00 0.46 0.00 82 1009.0
20260503171010 58 17 5.2 8.7 0.00 0.46 0.00 82 1009.1
20260503170508 58 272 5.2 7.8 0.00 0.46 0.00 82 1008.9
20260503151010 58 31 4.3 10.4 0.00 0.46 0.00 81 1009.4
20260503150509 58 16 4.3 8.7 0.00 0.46 0.00 80 1009.4
20260503131018 59 46 2.6 5.2 0.00 0.46 0.46 80 1009.6
20260503130517 59 38 1.7 5.2 0.00 0.46 0.46 80 1009.7
20260503110517 57 0 1.7 4.3 0.00 0.46 0.46 81 1010.0
20260503081516 61 195 2.6 8.7 0.00 0.46 0.46 75 1007.9
20260503081018 62 193 2.6 5.2 0.00 0.46 0.46 75 1007.8
20260503080516 62 311 2.6 6.1 0.00 0.46 0.46 75 1007.9
20260503072018 62 195 2.6 6.1 0.00 0.46 0.46 80 1008.1
20260503071516 62 191 2.6 8.7 0.00 0.46 0.46 80 1007.8
20260503071018 62 178 4.3 7.0 0.00 0.46 0.46 81 1007.7
20260503070516 62 191 2.6 6.1 0.00 0.46 0.46 82 1007.5
20260503055017 64 183 3.5 10.4 0.07 0.45 0.45 85 1007.3
20260503054516 65 168 4.3 8.7 0.07 0.45 0.45 84 1007.4
20260503054018 66 172 6.1 12.2 0.07 0.45 0.45 83 1007.4
20260503053516 67 173 4.3 7.0 0.05 0.43 0.43 84 1007.6
20260503053018 67 165 4.3 6.1 0.02 0.40 0.40 83 1007.3
20260503052516 67 190 1.7 7.8 0.02 0.40 0.40 82 1007.0
20260503052018 68 182 3.5 10.4 0.01 0.39 0.39 81 1007.1